Weather History for Glasgow, KY

Change the Weather History Date:

Thursday, September 5, 2013

  Actual Average Record
Temperature  
Mean Temperature 70 °F -  
Max Temperature 82 °F 84 °F 103 °F (1954)
Min Temperature 57 °F 61 °F 45 °F (2010)
Cooling Degree Days 4    
Growing Degree Days 20 (Base 50)    
Moisture  
Dew Point 62 °F    
Average Humidity 81    
Maximum Humidity 100    
Minimum Humidity 46    
Precipitation  
Precipitation 0.00 in - - ()
Sea Level Pressure  
Sea Level Pressure 30.18 in    
Wind  
Wind Speed 1 mph (NE)    
Max Wind Speed 7 mph    
Max Gust Speed -    
Visibility 8 miles    
Events Fog    
Averages and records for this station are not official NWS values.
T = Trace of Precipitation, MM = Missing Value Source: NWS Daily Summary

Daily Weather History Graph

Daily Weather History Graph

Search for Another Location

Airport:

Trip Planner

Search our weather history database for the weather conditions in past years. The results will help you decide how hot, cold, wet, or windy it might be!

Date:

Astronomy

Sep. 05, 2013 Rise Set
Actual Time 6:18 AM CDT 7:06 PM CDT
Civil Twilight 5:51 AM CDT 7:32 PM CDT
Nautical Twilight 5:20 AM CDT 8:03 PM CDT
Astronomical Twilight 4:48 AM CDT 8:35 PM CDT
Moon 6:27 AM CDT (9/5) 6:59 PM CDT (9/5)
Length of Visible Light 13h 40m
Length of Day
12h 48m
Waxing Crescent, 0% of the Moon is Illuminated
Sep 5
Waxing Crescent
Sep 12
First Quarter
Sep 19
Full
Sep 26
Last Quarter
Oct 4
New

Hourly Weather History & Observations

Time (CDT) Temp. Heat Index Dew Point Humidity Pressure Visibility Wind Dir Wind Speed Gust Speed Precip Events Conditions
12:15 AM 59.2 °F - 59.2 °F 100% 30.17 in 5.0 mi Calm Calm - N/A   Clear
12:35 AM 59.4 °F - 59.4 °F 100% 30.17 in 1.0 mi Calm Calm - N/A   Mist
12:55 AM 59.2 °F - 59.2 °F 100% 30.16 in 3.0 mi Calm Calm - N/A   Clear
1:15 AM 59.0 °F - 59.0 °F 100% 30.16 in 5.0 mi Calm Calm - N/A   Clear
1:35 AM 58.5 °F - 58.5 °F 100% 30.15 in 4.0 mi Calm Calm - N/A   Clear
1:55 AM 58.6 °F - 58.6 °F 100% 30.15 in 4.0 mi Calm Calm - N/A   Clear
2:15 AM 59.4 °F - 59.4 °F 100% 30.15 in 2.0 mi Calm Calm - N/A   Clear
2:35 AM 58.8 °F - 58.8 °F 100% 30.15 in 1.2 mi Calm Calm - N/A   Mist
2:55 AM 58.1 °F - 58.1 °F 100% 30.15 in 5.0 mi Calm Calm - N/A   Clear
3:15 AM 58.1 °F - 58.1 °F 100% 30.15 in 1.2 mi Calm Calm - N/A   Mist
3:35 AM 57.0 °F - 57.0 °F 100% 30.14 in 0.2 mi Calm Calm - N/A Fog Fog
3:55 AM 57.4 °F - 57.4 °F 100% 30.14 in 1.0 mi Calm Calm - N/A   Mostly Cloudy
4:15 AM 57.6 °F - 57.6 °F 100% 30.15 in 4.0 mi Calm Calm - N/A   Clear
4:35 AM 57.6 °F - 57.6 °F 100% 30.15 in 4.0 mi Calm Calm - N/A   Clear
4:55 AM 57.0 °F - 57.0 °F 100% 30.16 in 3.0 mi Calm Calm - N/A   Clear
5:15 AM 57.6 °F - 57.6 °F 100% 30.17 in 3.0 mi East 3.5 mph - N/A   Clear
5:35 AM 57.9 °F - 57.9 °F 100% 30.17 in 5.0 mi Calm Calm - N/A   Clear
5:55 AM 57.7 °F - 57.7 °F 100% 30.18 in 3.0 mi Calm Calm - N/A   Clear
6:15 AM 58.6 °F - 58.6 °F 100% 30.18 in 3.0 mi Calm Calm - N/A   Clear
6:35 AM 58.8 °F - 58.8 °F 100% 30.19 in 4.0 mi Calm Calm - N/A   Clear
6:55 AM 59.4 °F - 59.4 °F 100% 30.20 in 4.0 mi Calm Calm - N/A   Clear
7:15 AM 60.4 °F - 60.4 °F 100% 30.20 in 5.0 mi Calm Calm - N/A   Clear
7:35 AM 61.5 °F - 61.5 °F 100% 30.20 in 5.0 mi Calm Calm - N/A   Clear
7:55 AM 62.6 °F - 62.6 °F 100% 30.20 in 10.0 mi Calm Calm - N/A   Clear
8:15 AM 63.9 °F - 63.9 °F 100% 30.20 in 10.0 mi East 3.5 mph - N/A   Clear
8:35 AM 65.8 °F - 65.8 °F 100% 30.20 in 10.0 mi Calm Calm - N/A   Clear
8:55 AM 67.3 °F - 66.2 °F 96% 30.21 in 10.0 mi Calm Calm - N/A   Clear
9:15 AM 69.1 °F - 64.9 °F 87% 30.20 in 10.0 mi Calm Calm - N/A   Clear
9:35 AM 71.6 °F - 63.7 °F 76% 30.21 in 10.0 mi Calm Calm - N/A   Clear
9:55 AM 73.4 °F - 63.5 °F 71% 30.21 in 10.0 mi NNE 3.5 mph - N/A   Clear
10:15 AM 73.9 °F - 62.6 °F 68% 30.21 in 10.0 mi NNE 4.6 mph - N/A   Clear
10:35 AM 75.7 °F - 63.0 °F 64% 30.21 in 10.0 mi NE 3.5 mph - N/A   Clear
10:55 AM 77.0 °F - 62.1 °F 60% 30.21 in 10.0 mi NE 3.5 mph - N/A   Clear
11:15 AM 78.3 °F - 62.6 °F 58% 30.21 in 10.0 mi ENE 3.5 mph - N/A   Clear
11:35 AM 79.0 °F - 62.4 °F 57% 30.21 in 10.0 mi ENE 3.5 mph - N/A   Clear
11:55 AM 78.8 °F - 61.9 °F 56% 30.21 in 10.0 mi NE 5.8 mph - N/A   Clear
12:15 PM 79.0 °F - 61.3 °F 55% 30.21 in 10.0 mi NE 4.6 mph - N/A   Clear
12:35 PM 79.5 °F - 61.9 °F 55% 30.20 in 10.0 mi ESE 5.8 mph - N/A   Clear
12:55 PM 80.6 °F 81.6 °F 61.7 °F 52% 30.20 in 10.0 mi NNE 3.5 mph - N/A   Clear
1:15 PM 80.2 °F 81.6 °F 63.1 °F 56% 30.20 in 10.0 mi NE 3.5 mph - N/A   Clear
1:35 PM 80.4 °F 81.6 °F 62.4 °F 54% 30.19 in 10.0 mi NE 3.5 mph - N/A   Clear
1:55 PM 79.3 °F - 61.7 °F 55% 30.19 in 10.0 mi Calm Calm - N/A   Clear
2:15 PM 80.6 °F 81.9 °F 63.1 °F 55% 30.18 in 10.0 mi North 3.5 mph - N/A   Clear
2:35 PM 81.3 °F 82.6 °F 63.3 °F 54% 30.17 in 10.0 mi NNE 3.5 mph - N/A   Clear
2:55 PM 81.9 °F 82.5 °F 61.2 °F 49% 30.17 in 10.0 mi East 5.8 mph - N/A   Clear
3:15 PM 82.6 °F 82.8 °F 60.1 °F 46% 30.17 in 10.0 mi Calm Calm - N/A   Clear
3:35 PM 82.8 °F 83.6 °F 62.4 °F 50% 30.16 in 10.0 mi North 6.9 mph - N/A   Clear
3:55 PM 81.7 °F 82.9 °F 62.8 °F 53% 30.16 in 10.0 mi East 4.6 mph - N/A   Clear
4:15 PM 81.7 °F 82.4 °F 61.3 °F 50% 30.16 in 10.0 mi Calm Calm - N/A   Clear
4:35 PM 82.0 °F 82.7 °F 61.3 °F 49% 30.16 in 10.0 mi Calm Calm - N/A   Clear
4:55 PM 81.9 °F 82.8 °F 62.2 °F 51% 30.16 in 10.0 mi Calm Calm - N/A   Clear
5:15 PM 81.1 °F 82.5 °F 63.5 °F 55% 30.16 in 10.0 mi Calm Calm - N/A   Clear
5:35 PM 81.0 °F 82.2 °F 63.0 °F 54% 30.16 in 10.0 mi Calm Calm - N/A   Clear
5:55 PM 80.6 °F 82.4 °F 64.9 °F 59% 30.15 in 10.0 mi Calm Calm - N/A   Clear
6:15 PM 79.7 °F - 65.8 °F 62% 30.15 in 10.0 mi Calm Calm - N/A   Clear
6:35 PM 77.7 °F - 64.9 °F 65% 30.15 in 10.0 mi Calm Calm - N/A   Clear
6:55 PM 75.6 °F - 63.7 °F 66% 30.15 in 10.0 mi Calm Calm - N/A   Clear
7:15 PM 71.8 °F - 63.5 °F 75% 30.15 in 10.0 mi Calm Calm - N/A   Clear
7:35 PM 70.7 °F - 63.1 °F 77% 30.15 in 10.0 mi Calm Calm - N/A   Clear
7:55 PM 69.1 °F - 63.1 °F 81% 30.15 in 10.0 mi Calm Calm - N/A   Clear
8:15 PM 67.8 °F - 63.7 °F 87% 30.16 in 10.0 mi Calm Calm - N/A   Clear
8:35 PM 66.9 °F - 66.2 °F 98% 30.16 in 10.0 mi Calm Calm - N/A   Clear
8:55 PM 65.7 °F - 65.7 °F 100% 30.17 in 10.0 mi Calm Calm - N/A   Clear
9:15 PM 66.0 °F - 65.5 °F 98% 30.18 in 10.0 mi Calm Calm - N/A   Clear
9:35 PM 64.9 °F - 64.9 °F 100% 30.18 in 10.0 mi Calm Calm - N/A   Clear
9:55 PM 64.2 °F - 64.2 °F 100% 30.18 in 10.0 mi Calm Calm - N/A   Clear
10:15 PM 63.9 °F - 63.9 °F 100% 30.18 in 10.0 mi Calm Calm - N/A   Clear
10:35 PM 63.9 °F - 63.9 °F 100% 30.18 in 10.0 mi Calm Calm - N/A   Clear
10:55 PM 63.9 °F - 63.9 °F 100% 30.18 in 10.0 mi Calm Calm - N/A   Clear
11:15 PM 63.7 °F - 63.7 °F 100% 30.18 in 7.0 mi Calm Calm - N/A   Clear
11:35 PM 63.0 °F - 63.0 °F 100% 30.18 in 5.0 mi Calm Calm - N/A   Clear
11:55 PM 63.1 °F - 63.1 °F 100% 30.18 in 5.0 mi Calm Calm - N/A   Clear